Dinard-Pleurtuit-Saint-Malo Airport

Jump to: basic info | weather | frequencies | runways | comments

Related pages: nearby airports | nearby navaids | notams | map

Basic information (top)

Codes: DNR LFRD
Location: lon 48.587700, lat -2.079960, elev 219 ft / 67 m msl
Status: medium_airport
Scheduled airline service: yes
Links: Wikipedia Mobile

Weather (top)

Current conditions (rec'd 2014/07/31 01:00Z):

LFRD 310100Z AUTO VRB03KT 9999 BKN013 13/12 Q1018

Airport forecast (rec'd 2014/07/30 00:15Z):

TAF LFRD 302300Z 3100/3124 VRB03KT CAVOK 
      BECMG 3100/3102 2000 MIFG 
      BECMG 3102/3104 BKN003 PROB30 
      TEMPO 3104/3107 0200 FG VV/// 
      BECMG 3107/3109 9999 NSW BKN008 
      BECMG 3109/3110 SCT030 
      BECMG 3111/3113 35010KT 
      BECMG 3122/3124 VRB03KT

Frequencies (top)

Verify before use: may be inaccurate or out of date.

ATIS: 124.575 MHz (DINARD ATIS)
TWR: 120.15 MHz (DINARD TWR)

Runways (top)

12/30: 4,708 x 148 ft (1,435 x 45 m) — paved — not lighted — threshold 30 displaced 476 ft (145 m)

17/35: 7,218 x 148 ft (2,200 x 45 m) — paved — lighted

Latest comments (top)

No comments yet for Dinard-Pleurtuit-Saint-Malo Airport

More... (top)

See also NOTAMs and nearby airports and navaids, or visit the Dinard-Pleurtuit-Saint-Malo Airport page at the main OurAirports website..